• In Hungary
  • List of Countries
  • For 7 days
  • Water Temperature
  • Satellite Maps
  • Weather Map
  • News
  • Weather Widgets
  • user-avatar
    Login

    Hourly Weather Petyal

    Today, 23 October, Tuesday

    Time Temperature Precipitation Wind Pressure Humidity
    00:00 +2°C° 0 mm 5 mps 751 mmHg 85%
    01:00 +3°C° 0 mm 4 mps 750 mmHg 88%
    02:00 +3°C° 0 mm 4 mps 750 mmHg 90%
    03:00 +3°C° 0 mm 4 mps 749 mmHg 94%
    04:00 +4°C° 0 mm 4 mps 748 mmHg 93%
    05:00 +5°C° 0 mm 5 mps 748 mmHg 93%
    06:00 +6°C° 0 mm 5 mps 748 mmHg 92%
    07:00 +6°C° 0.2 mm 5 mps 747 mmHg 90%
    08:00 +6°C° 0.2 mm 5 mps 747 mmHg 89%
    09:00 +7°C° 0 mm 6 mps 746 mmHg 85%
    10:00 +7°C° 0.5 mm 6 mps 746 mmHg 84%
    11:00 +7°C° 0.5 mm 6 mps 745 mmHg 83%
    12:00 +7°C° 0.5 mm 6 mps 745 mmHg 81%
    13:00 +7°C° 0.7 mm 6 mps 744 mmHg 83%
    14:00 +7°C° 0.7 mm 6 mps 744 mmHg 84%
    15:00 +7°C° 0.7 mm 6 mps 743 mmHg 85%
    16:00 +6°C° 0.7 mm 7 mps 742 mmHg 85%
    17:00 +5°C° 0.7 mm 7 mps 742 mmHg 86%
    18:00 +5°C° 0.7 mm 7 mps 741 mmHg 86%
    19:00 +5°C° 0.5 mm 6 mps 741 mmHg 86%
    20:00 +5°C° 0.5 mm 6 mps 740 mmHg 87%
    21:00 +5°C° 0.5 mm 6 mps 740 mmHg 88%
    22:00 +6°C° 0.2 mm 5 mps 740 mmHg 88%
    23:00 +6°C° 0.2 mm 5 mps 740 mmHg 89%

    Tomorrow, 24 October, Wednesday

    Time Temperature Precipitation Wind Pressure Humidity
    00:00 +6°C° 0.2 mm 4 mps 739 mmHg 90%
    01:00 +5°C° 0 mm 3 mps 739 mmHg 91%
    02:00 +4°C° 0 mm 3 mps 739 mmHg 92%
    03:00 +3°C° 0 mm 3 mps 739 mmHg 93%
    04:00 +3°C° 0 mm 3 mps 739 mmHg 93%
    05:00 +3°C° 0 mm 3 mps 739 mmHg 93%
    06:00 +2°C° 0 mm 3 mps 739 mmHg 93%
    07:00 +3°C° 0 mm 3 mps 739 mmHg 89%
    08:00 +4°C° 0 mm 4 mps 739 mmHg 85%
    09:00 +5°C° 0 mm 4 mps 739 mmHg 81%
    10:00 +6°C° 0 mm 5 mps 739 mmHg 75%
    11:00 +7°C° 0 mm 5 mps 738 mmHg 70%
    12:00 +8°C° 0 mm 5 mps 738 mmHg 65%
    13:00 +8°C° 0 mm 5 mps 738 mmHg 66%
    14:00 +7°C° 0 mm 4 mps 738 mmHg 66%
    15:00 +7°C° 0 mm 4 mps 738 mmHg 67%
    16:00 +7°C° 0 mm 4 mps 738 mmHg 69%
    17:00 +6°C° 0 mm 4 mps 738 mmHg 72%
    18:00 +6°C° 0 mm 4 mps 738 mmHg 74%
    19:00 +6°C° 0 mm 4 mps 738 mmHg 75%
    20:00 +6°C° 0 mm 5 mps 737 mmHg 76%
    21:00 +6°C° 0 mm 5 mps 737 mmHg 76%
    22:00 +6°C° 0.1 mm 5 mps 737 mmHg 77%
    23:00 +6°C° 0.1 mm 5 mps 736 mmHg 77%

    Day after tomorrow, 25 October, Thursday

    Time Temperature Precipitation Wind Pressure Humidity
    00:00 +5°C° 0.1 mm 6 mps 736 mmHg 78%
    01:00 +5°C° 0.5 mm 6 mps 736 mmHg 80%
    02:00 +5°C° 0.5 mm 6 mps 735 mmHg 82%
    03:00 +7°C° 0.5 mm 6 mps 735 mmHg 84%
    04:00 +7°C° 1 mm 6 mps 735 mmHg 86%
    05:00 +7°C° 1 mm 6 mps 735 mmHg 89%
    06:00 +7°C° 1 mm 6 mps 734 mmHg 92%
    07:00 +7°C° 0.7 mm 6 mps 734 mmHg 91%
    08:00 +7°C° 0.7 mm 6 mps 734 mmHg 91%
    09:00 +8°C° 0.7 mm 6 mps 733 mmHg 91%
    10:00 +8°C° 0.6 mm 6 mps 733 mmHg 90%
    11:00 +9°C° 0.6 mm 6 mps 732 mmHg 89%
    12:00 +9°C° 0.6 mm 6 mps 732 mmHg 88%
    13:00 +9°C° 0.4 mm 7 mps 731 mmHg 88%
    14:00 +9°C° 0.4 mm 7 mps 731 mmHg 88%
    15:00 +9°C° 0.4 mm 7 mps 731 mmHg 88%
    16:00 +9°C° 0.3 mm 7 mps 731 mmHg 88%
    17:00 +9°C° 0.3 mm 7 mps 730 mmHg 87%
    18:00 +9°C° 0.3 mm 7 mps 730 mmHg 87%
    19:00 +9°C° 0.4 mm 6 mps 730 mmHg 86%
    20:00 +8°C° 0.4 mm 6 mps 730 mmHg 85%
    21:00 +8°C° 0.4 mm 5 mps 731 mmHg 85%
    22:00 +7°C° 0.1 mm 4 mps 731 mmHg 83%
    23:00 +6°C° 0.1 mm 4 mps 731 mmHg 81%

    26 October, Friday

    Time Temperature Precipitation Wind Pressure Humidity
    00:00 +5°C° 0.1 mm 3 mps 731 mmHg 79%
    01:00 +5°C° 0 mm 4 mps 731 mmHg 79%
    02:00 +5°C° 0 mm 4 mps 731 mmHg 78%
    03:00 +3°C° 0 mm 5 mps 731 mmHg 78%
    04:00 +3°C° 0 mm 5 mps 732 mmHg 78%
    05:00 +3°C° 0 mm 5 mps 732 mmHg 79%
    06:00 +3°C° 0 mm 5 mps 732 mmHg 80%
    07:00 +3°C° 0 mm 5 mps 732 mmHg 78%
    08:00 +3°C° 0 mm 6 mps 733 mmHg 77%
    09:00 +4°C° 0 mm 6 mps 733 mmHg 76%
    10:00 +4°C° 0 mm 7 mps 734 mmHg 72%
    11:00 +4°C° 0 mm 7 mps 734 mmHg 68%
    12:00 +4°C° 0 mm 7 mps 734 mmHg 64%
    13:00 +4°C° 0 mm 7 mps 735 mmHg 63%
    14:00 +4°C° 0 mm 6 mps 735 mmHg 63%
    15:00 +3°C° 0 mm 6 mps 735 mmHg 62%
    16:00 +3°C° 0 mm 5 mps 736 mmHg 65%
    17:00 +2°C° 0 mm 5 mps 736 mmHg 68%
    18:00 +3°C° 0 mm 4 mps 737 mmHg 70%
    19:00 +1°C° 0 mm 4 mps 737 mmHg 71%
    20:00 +1°C° 0 mm 5 mps 737 mmHg 72%
    21:00 +1°C° 0 mm 5 mps 737 mmHg 73%
    22:00 +1°C° 0 mm 5 mps 738 mmHg 72%
    23:00 +1°C° 0 mm 5 mps 738 mmHg 71%

    27 October, Saturday

    Time Temperature Precipitation Wind Pressure Humidity
    00:00 0°C° 0 mm 5 mps 738 mmHg 70%
    01:00 0°C° 0 mm 5 mps 739 mmHg 72%
    02:00 0°C° 0 mm 4 mps 739 mmHg 74%
    03:00 0°C° 0 mm 4 mps 739 mmHg 76%
    04:00 0°C° 0 mm 4 mps 739 mmHg 79%
    05:00 0°C° 0 mm 4 mps 740 mmHg 82%
    06:00 -1°C° 0 mm 5 mps 740 mmHg 86%
    07:00 0°C° 0 mm 5 mps 740 mmHg 82%
    08:00 +1°C° 0 mm 6 mps 740 mmHg 79%
    09:00 +1°C° 0 mm 6 mps 741 mmHg 75%
    10:00 +2°C° 0 mm 6 mps 741 mmHg 73%
    11:00 +2°C° 0 mm 6 mps 741 mmHg 70%
    12:00 +2°C° 0 mm 7 mps 742 mmHg 68%
    13:00 +2°C° 0 mm 6 mps 742 mmHg 67%
    14:00 +2°C° 0 mm 6 mps 742 mmHg 66%
    15:00 +3°C° 0 mm 5 mps 742 mmHg 65%
    16:00 +2°C° 0 mm 5 mps 742 mmHg 69%
    17:00 +1°C° 0 mm 5 mps 742 mmHg 73%
    18:00 +1°C° 0 mm 4 mps 742 mmHg 76%
    19:00 +1°C° 0 mm 5 mps 742 mmHg 77%
    20:00 +1°C° 0 mm 5 mps 742 mmHg 77%
    21:00 +1°C° 0 mm 5 mps 741 mmHg 77%
    22:00 +1°C° 0.8 mm 5 mps 740 mmHg 79%
    23:00 +2°C° 0.8 mm 6 mps 739 mmHg 81%

    28 October, Sunday

    Time Temperature Precipitation Wind Pressure Humidity
    00:00 +2°C° 0.8 mm 6 mps 739 mmHg 83%
    01:00 +3°C° 0.6 mm 6 mps 738 mmHg 84%
    02:00 +4°C° 0.6 mm 7 mps 737 mmHg 85%
    03:00 +4°C° 0.6 mm 7 mps 737 mmHg 86%
    04:00 +4°C° 0.1 mm 7 mps 737 mmHg 86%
    05:00 +4°C° 0.1 mm 6 mps 737 mmHg 86%
    06:00 +3°C° 0.1 mm 6 mps 737 mmHg 85%
    07:00 +3°C° 0 mm 7 mps 738 mmHg 82%
    08:00 +3°C° 0 mm 7 mps 738 mmHg 79%
    09:00 +3°C° 0 mm 7 mps 738 mmHg 76%
    10:00 +3°C° 0.2 mm 7 mps 739 mmHg 76%
    11:00 +3°C° 0.2 mm 7 mps 740 mmHg 76%
    12:00 +2°C° 0.2 mm 8 mps 741 mmHg 75%
    13:00 +3°C° 0.1 mm 7 mps 742 mmHg 75%
    14:00 +3°C° 0.1 mm 7 mps 743 mmHg 75%
    15:00 +3°C° 0.1 mm 7 mps 744 mmHg 75%
    16:00 +3°C° 0 mm 6 mps 744 mmHg 77%
    17:00 +3°C° 0 mm 6 mps 745 mmHg 79%
    18:00 +3°C° 0 mm 5 mps 746 mmHg 81%
    19:00 +2°C° 0.1 mm 5 mps 747 mmHg 82%
    20:00 +3°C° 0.1 mm 4 mps 748 mmHg 84%
    21:00 +3°C° 0.1 mm 3 mps 749 mmHg 85%
    22:00 +2°C° 0 mm 3 mps 749 mmHg 85%
    23:00 +2°C° 0 mm 3 mps 750 mmHg 85%

    29 October, Monday

    Time Temperature Precipitation Wind Pressure Humidity
    00:00 +1°C° 0 mm 3 mps 751 mmHg 85%
    01:00 0°C° 0 mm 3 mps 752 mmHg 87%
    02:00 0°C° 0 mm 3 mps 753 mmHg 89%
    03:00 -1°C° 0 mm 3 mps 753 mmHg 91%
    04:00 -1°C° 0 mm 3 mps 754 mmHg 92%
    05:00 -1°C° 0 mm 2 mps 755 mmHg 93%
    06:00 -2°C° 0 mm 2 mps 755 mmHg 94%
    07:00 -1°C° 0 mm 2 mps 756 mmHg 90%
    08:00 +1°C° 0 mm 2 mps 756 mmHg 85%
    09:00 +1°C° 0 mm 2 mps 757 mmHg 81%
    10:00 +2°C° 0 mm 2 mps 757 mmHg 76%
    11:00 +3°C° 0 mm 2 mps 758 mmHg 71%
    12:00 +3°C° 0 mm 2 mps 758 mmHg 66%
    13:00 +4°C° 0 mm 1 mps 759 mmHg 69%
    14:00 +4°C° 0 mm 1 mps 759 mmHg 71%
    15:00 +4°C° 0 mm 1 mps 759 mmHg 73%
    16:00 +4°C° 0 mm 1 mps 759 mmHg 76%
    17:00 +3°C° 0 mm 1 mps 759 mmHg 79%
    18:00 +3°C° 0 mm 1 mps 760 mmHg 81%
    19:00 +3°C° 0.1 mm 1 mps 760 mmHg 82%
    20:00 +3°C° 0.1 mm 1 mps 760 mmHg 83%
    21:00 +3°C° 0.1 mm 1 mps 760 mmHg 84%
    22:00 +3°C° 0.2 mm 1 mps 760 mmHg 86%
    23:00 +3°C° 0.2 mm 1 mps 760 mmHg 87%
    Show more